Location: Navajo
(48.7922°N, 105.0603°W)
Time: 07:37:58
(UTC+00:00)

DUCHIFAT 1 - Pass Details

Date: 04 July 2022
Orbit: 580 x 596 km, 98.0° (Epoch: 07 August)

Event Time Altitude Azimuth Distance (km) Brightness Sun altitude
Rises 09:13:21 0° 19° (NNE) 2,846 ? -12.8°
Reaches altitude 10° 09:15:37 10° 26° (NNE) 1,941 ? -12.6°
Maximum altitude 09:19:39 43° 99° (E) 850 ? -12.3°
Drops below altitude 10° 09:23:38 10° 171° (S) 1,930 ? -11.9°
Enters shadow 09:23:42 10° 171° (S) 1,954 ? -11.9°
